Monterey, CA (93940)

11:09 AM PDT on August 27, 2016 (GMT -0700)
Monterey Peninsula | | Change Station

Elev 253 ft 36.59 °N, 121.84 °W | Updated 15 minutes ago

Overcast
Overcast
62 °F
Feels Like 62 °F
N
4
Wind Variable Wind from WNW

Today
High -- | Low -- °F
--% Chance of Precip.
Yesterday
High -- | Low -- °F
Precip. -- in
Pressure 30.08 in
Visibility 10.0 miles
Clouds Overcast 1700 ft
Dew Point 54 °F
Humidity 75%
Rainfall 0.00 in
Snow Depth Not available.
6:35 AM 7:41 PM
Waning Crescent, 22% visible
METAR KMRY 271754Z 29003KT 10SM OVC017 17/12 A3005 RMK AO2 SLP186 T01670122 10167 20150 51011
Pressure 30.08 in
Visibility 10.0 miles
Clouds Overcast 1700 ft
Dew Point 54 °F
Humidity 75%
Rainfall 0.00 in
Snow Depth Not available.
6:35 AM 7:41 PM
Waning Crescent, 22% visible
METAR KMRY 271754Z 29003KT 10SM OVC017 17/12 A3005 RMK AO2 SLP186 T01670122 10167 20150 51011

10-Day Weather Forecast

Almanac

Astronomy

Aug. 27, 2016 Rise Set
Actual Time
Civil Twilight
Nautical Twilight
Astronomical Twilight
Moon
Length of Visible Light
Length of Day
Tomorrow will be .
, % of the Moon is Illuminated

Today's Extremes

State Highs State Lows

Community

WunderPhotos

Upload Photos

1,935,393 photos uploaded!

WunderBlog® & News

Nearby

Air Quality

  Air Quality AQ Index Pollutant
Not available.

Snow Depth

Station Depth Elevation

Earthquake Activity

City Distance Mag. Time & Date
Minimum magnitude displayed is 2.5.

Coastal Water Temperatures

Place Temperature

Stations

Nearby Weather Stations

Station Location Temp. Windchill Dew Point Humidity Wind Precip. Elev Updated Type
                   

Watches & Warnings

There are currently no watches in effect.